[[{"header":{"parameterUnit":"m.s-1","parameterCategory":1,"la1":30.2991,"la2":30.254,"lo1":-89.0895,"lo2":-89.0444,"dy":0.0017,"dx":0.0017,"nx":28,"ny":28,"refTime":"2024-12-19T09:00:00:Z","depth":0,"parameterNumber":2,"parameterNumberName":"U-component_of_WINDS"},"data":[0,0,0,0,0,0,0,0,0,0,0,0,0,0,0,0,0,0,0,0,0,0,0,0,0,0,0,0,0,0,0,0,0,0,0,0,0,0,0,0,0,0,0,0,0,0,0,0,0,0,0,0,0,0,0,0,0,0,3.3026,3.3026,0,3.3087,3.3087,3.3088,3.3071,3.307,3.3068,3.3067,3.3131,3.3134,3.3136,0,0,0,0,0,0,0,0,0,0,0,0,0,3.2897,3.29,3.3026,3.3026,3.3027,3.3087,3.3087,3.3088,3.3071,3.307,3.3068,3.3067,3.313,3.3133,3.3137,0,0,0,0,0,0,0,0,0,0,0,0,0,3.2955,3.2901,3.3026,3.3026,3.3026,3.3086,3.3087,3.3089,3.3071,3.307,3.3068,3.3066,3.3129,3.3133,3.3137,3.3201,0,0,3.315,3.3152,0,0,0,0,0,0,0,0,3.2952,3.296,3.3025,3.3026,3.3027,3.3069,3.3066,3.3126,3.3072,3.3054,3.3067,3.3065,3.3112,3.3118,3.3133,3.3204,3.3207,3.3151,3.3153,3.3155,3.3156,0,0,0,0,0,0,0,3.2948,3.2957,3.305,3.3026,3.3027,3.3024,3.303,3.3077,3.3093,3.3056,3.3055,3.3062,3.3112,3.3129,3.3134,3.3208,3.3151,3.3154,3.3157,3.3159,3.3337,3.334,0,0,0,0,0,0,3.2943,3.2954,3.3048,3.3052,3.2984,3.3028,3.3035,3.3058,3.3092,3.3096,3.3064,3.3061,3.3123,3.3129,3.3137,3.3216,3.3155,3.3159,3.3162,3.3335,3.3338,3.334,0,0,0,0,0,0,3.294,3.2952,3.3045,3.3003,3.3014,3.3032,3.3058,3.306,3.3077,3.3098,3.3101,3.3078,3.3121,3.3131,3.3186,3.3218,3.3161,3.3165,3.3333,3.3336,3.3339,3.3373,0,0,0,0,0,0,3.2937,3.2951,3.2974,3.3003,3.3017,3.3093,3.306,3.3062,3.3084,3.3081,3.3112,3.3116,3.3121,3.318,3.319,3.3222,3.3168,3.333,3.3334,3.3338,3.3369,3.3377,3.3384,0,0,0,0,0,3.2932,3.2981,3.2975,3.2987,3.3046,3.3094,3.3102,3.3106,3.3086,3.3111,3.3126,3.3115,3.3212,3.3185,3.3197,3.3231,3.3328,3.3333,3.3338,3.3366,3.3375,3.3383,0,0,0,0,0,0,3.2955,3.2985,3.2979,3.3038,3.3064,3.3091,3.3122,3.3116,3.3148,3.3144,3.3149,3.3156,3.3213,3.3228,3.3197,3.3296,3.3267,3.3275,3.3285,3.3294,3.3301,3.3297,3.3172,0,0,0,0,0,3.2967,3.3002,3.3027,3.3077,3.309,3.3104,3.3125,3.3127,3.3154,3.3165,3.3183,3.321,3.3247,3.3271,3.3306,3.3371,3.3379,3.3401,3.3408,3.3414,3.3421,3.3459,3.3469,3.3356,3.3356,3.3356,0,0,3.2991,3.3012,3.3034,3.3082,3.3102,3.3141,3.3113,3.3154,3.3183,3.3171,3.3224,3.3239,3.327,3.3331,3.3359,3.3345,3.3454,3.342,3.3425,3.3428,3.3465,3.3475,3.3485,3.336,3.3359,3.3359,0,0,3.3056,3.3075,3.312,3.3141,3.3172,3.3182,3.3193,3.3222,3.3231,3.3285,3.3277,3.3313,3.3375,3.3399,3.3419,3.3496,3.3488,3.3507,3.3546,3.3583,3.3592,3.3599,3.3629,3.3639,3.3514,3.3514,3.3514,0,3.3083,3.314,3.3144,3.3186,3.3209,3.32,3.3246,3.3267,3.3308,3.3324,3.3308,3.3389,3.3409,3.3476,3.3496,3.3512,3.3526,3.3504,3.359,3.3598,3.3605,3.3633,3.3644,3.3516,3.3516,3.3516,3.3515,0,3.3172,3.3212,3.3245,3.3286,3.3311,3.3356,3.3368,3.3394,3.3394,3.3406,3.3462,3.3486,3.3527,3.3544,3.3543,3.3612,3.3603,3.3588,3.3559,3.3618,3.3645,3.3655,3.3519,3.3518,3.3518,3.3517,0,0,3.3251,3.3296,3.3308,3.3327,3.3362,3.3394,3.3439,3.3479,3.3502,3.3532,3.3571,3.3626,3.3614,3.3637,3.3639,3.3672,3.3734,3.3654,3.3655,3.3669,3.3814,3.3825,3.3837,3.3729,3.3731,3.3733,3.3812,0,3.3321,3.3399,3.3405,3.3477,3.3515,3.3509,3.3548,3.3575,3.3588,3.3623,3.3638,3.3677,3.3657,3.3671,3.3703,3.372,3.3764,3.3714,3.3767,3.3769,3.376,3.3851,3.3862,3.3936,3.3822,3.3824,3.3825,0,3.3411,3.3444,3.352,3.3552,3.3568,3.3603,3.3643,3.3676,3.3707,3.3714,3.3741,3.374,3.3789,3.3758,3.3826,3.3793,3.3815,3.3827,3.383,3.3836,3.3801,3.386,3.3959,3.397,3.3841,3.384,3.3839,0,3.3463,3.3527,3.3581,3.3597,3.3636,3.3661,3.3679,3.3708,3.3733,3.3767,3.3784,3.3824,3.3846,3.3877,3.3888,3.3864,3.3956,3.3926,3.3965,3.3965,3.3985,3.3983,3.4089,3.3998,3.3998,3.3997,3.3997,0,3.354,3.3587,3.3605,3.3638,3.3691,3.3699,3.3752,3.3768,3.3795,3.3832,3.3829,3.3865,3.3876,3.3914,3.3923,3.398,3.3989,3.3998,3.4,3.3998,3.3998,3.4013,3.4009,3.4,3.4,3.3999,3.3999,0,3.3607,3.3621,3.3679,3.3712,3.3721,3.3759,3.3787,3.3821,3.3834,3.3882,3.3893,3.3914,3.3959,3.3973,3.4027,3.4033,3.41,3.4097,3.4089,3.409,3.4128,3.4125,3.4249,3.4266,3.4162,3.4163,3.4164,0,3.3655,3.3691,3.3728,3.3753,3.3772,3.3812,3.3837,3.3847,3.3874,3.3915,3.3943,3.3988,3.4024,3.4097,3.4118,3.416,3.4158,3.4199,3.4165,3.4163,3.4161,3.4159,3.4164,3.4205,3.4207,3.4207,3.4208,0,3.374,3.3746,3.3783,3.3823,3.3854,3.3886,3.3917,3.3938,3.3953,3.3984,3.403,3.4058,3.4115,3.416,3.4203,3.4222,3.4219,3.4219,3.4231,3.423,3.4225,3.423,3.4108,3.4216,3.4215,3.4215,3.4214,3.4214,3.38,3.3833,3.3865,3.3907,3.3932,3.3961,3.3995,3.4013,3.4051,3.4098,3.4101,3.4152,3.4185,3.4243,3.4265,3.4306,3.4294,3.431,3.4315,3.4319,3.4323,3.4218,3.4314,3.4313,3.4313,3.4313,3.4313,0,3.3886,3.3907,3.3946,3.399,3.4024,3.4017,3.4052,3.4081,3.4125,3.4156,3.4193,3.4247,3.4292,3.4317,3.4362,3.439,3.439,3.4401,3.44,3.4405,3.433,3.4316,3.4401,3.4401,3.4401,3.4401,3.4401,3.4401,3.3935,3.3991,3.4001,3.407,3.4091,3.414,3.4161,3.4189,3.4214,3.4275,3.4312,3.4328,3.4358,3.4405,3.4447,3.4453,3.447,3.4484,3.449,3.4419,3.441,3.4401,3.4388,3.4487,3.4488,3.4561,3.4562,3.4563]},{"header":{"parameterUnit":"m.s-1","parameterCategory":1,"la1":30.2991,"la2":30.254,"lo1":-89.0895,"lo2":-89.0444,"dy":0.0017,"dx":0.0017,"nx":28,"ny":28,"refTime":"2024-12-19T09:00:00:Z","depth":0,"parameterNumber":3,"parameterNumberName":"V-component_of_WINDS"},"data":[0,0,0,0,0,0,0,0,0,0,0,0,0,0,0,0,0,0,0,0,0,0,0,0,0,0,0,0,0,0,0,0,0,0,0,0,0,0,0,0,0,0,0,0,0,0,0,0,0,0,0,0,0,0,0,0,0,0,-3.9852,-3.9853,0,-3.9952,-3.9953,-3.9954,-3.9964,-3.9963,-3.9962,-3.9962,-4.0061,-4.0064,-4.0068,0,0,0,0,0,0,0,0,0,0,0,0,0,-3.9672,-3.9675,-3.9852,-3.9853,-3.9855,-3.9951,-3.9953,-3.9954,-3.9965,-3.9963,-3.9962,-3.9961,-4.0059,-4.0064,-4.0068,0,0,0,0,0,0,0,0,0,0,0,0,0,-3.9758,-3.9676,-3.9852,-3.9872,-3.9874,-3.9951,-3.9953,-3.9955,-3.9965,-3.9963,-3.9962,-3.9961,-4.0058,-4.0063,-4.0069,-4.0132,0,0,-4.0085,-4.0087,0,0,0,0,0,0,0,0,-3.9753,-3.9765,-3.9868,-3.987,-3.9874,-3.9944,-3.9926,-4.0014,-3.9965,-3.993,-3.9962,-3.996,-4.0023,-4.0031,-4.0053,-4.0136,-4.0141,-4.0085,-4.0089,-4.0091,-4.0092,0,0,0,0,0,0,0,-3.9747,-3.9761,-3.9891,-3.9869,-3.9873,-3.9876,-3.9886,-3.9942,-3.9984,-3.9933,-3.9934,-3.9946,-4.0024,-4.0048,-4.0055,-4.0142,-4.0085,-4.009,-4.0093,-4.0095,-4.0286,-4.0287,0,0,0,0,0,0,-3.9738,-3.9756,-3.9888,-3.9894,-3.9809,-3.988,-3.9892,-3.9923,-3.9983,-3.9991,-3.9947,-3.9946,-4.0039,-4.0049,-4.0059,-4.0139,-4.0091,-4.0096,-4.0099,-4.0284,-4.0286,-4.0288,0,0,0,0,0,0,-3.9734,-3.975,-3.9884,-3.9826,-3.9843,-3.9885,-3.992,-3.9926,-3.9949,-3.9994,-4.0001,-3.9964,-4.0039,-4.0051,-4.0115,-4.0142,-4.0098,-4.0103,-4.0282,-4.0285,-4.0287,-4.0298,0,0,0,0,0,0,-3.9729,-3.9748,-3.9772,-3.9826,-3.9846,-3.9938,-3.9921,-3.9929,-3.9959,-3.9958,-4.0011,-4.0018,-4.0038,-4.0106,-4.012,-4.0149,-4.0107,-4.0279,-4.0283,-4.0286,-4.0295,-4.0301,-4.0305,0,0,0,0,0,-3.9722,-3.977,-3.9773,-3.9789,-3.9877,-3.994,-3.9951,-3.9974,-3.9961,-3.9986,-4.0015,-4.0017,-4.0137,-4.0113,-4.0128,-4.0159,-4.0278,-4.0282,-4.0286,-4.0293,-4.03,-4.0305,0,0,0,0,0,0,-3.9717,-3.9777,-3.9782,-3.9848,-3.9889,-3.9941,-3.9973,-3.998,-4.0024,-4.0022,-4.0047,-4.0059,-4.0122,-4.0147,-4.0118,-4.0225,-4.0206,-4.0214,-4.0206,-4.0213,-4.0218,-4.0211,-4.0112,0,0,0,0,0,-3.9724,-3.977,-3.982,-3.9874,-3.9894,-3.9931,-3.9958,-3.9973,-4.0016,-4.0033,-4.0066,-4.0107,-4.0155,-4.0185,-4.0231,-4.0299,-4.0312,-4.0328,-4.0333,-4.0337,-4.0343,-4.0384,-4.0393,-4.0302,-4.0302,-4.0302,0,0,-3.9737,-3.9776,-3.9803,-3.9874,-3.9907,-3.9955,-3.9945,-3.9995,-4.0031,-4.004,-4.0102,-4.0129,-4.0177,-4.0243,-4.0274,-4.0266,-4.0372,-4.0343,-4.0346,-4.035,-4.0389,-4.0398,-4.0405,-4.0305,-4.0304,-4.0304,0,0,-3.9787,-3.9821,-3.9871,-3.9905,-3.9957,-3.9981,-3.9993,-4.0046,-4.0064,-4.0128,-4.0137,-4.018,-4.026,-4.0295,-4.0323,-4.039,-4.0394,-4.0404,-4.043,-4.047,-4.0477,-4.0483,-4.0509,-4.0518,-4.041,-4.041,-4.041,0,-3.9798,-3.987,-3.9895,-3.9947,-3.9978,-3.9991,-4.0043,-4.0074,-4.0137,-4.0159,-4.0149,-4.0253,-4.0286,-4.0362,-4.0379,-4.0401,-4.0416,-4.0398,-4.0474,-4.0481,-4.0487,-4.0512,-4.0521,-4.0411,-4.0411,-4.0411,-4.0411,0,-3.9882,-3.9932,-3.9966,-4.003,-4.0065,-4.0116,-4.0149,-4.0182,-4.0194,-4.022,-4.0286,-4.0326,-4.0382,-4.0401,-4.0412,-4.048,-4.0474,-4.0469,-4.045,-4.0496,-4.052,-4.053,-4.0413,-4.0412,-4.0412,-4.0412,0,0,-3.9929,-4.0008,-4.002,-4.005,-4.0109,-4.0149,-4.0201,-4.0257,-4.0286,-4.033,-4.0375,-4.0445,-4.0442,-4.0474,-4.0489,-4.0524,-4.0577,-4.0515,-4.0517,-4.0526,-4.0657,-4.066,-4.0671,-4.0581,-4.0582,-4.0584,-4.0653,0,-3.9986,-4.0081,-4.0107,-4.0187,-4.0235,-4.0249,-4.0295,-4.0337,-4.0363,-4.0408,-4.0436,-4.0486,-4.0477,-4.0497,-4.0532,-4.0563,-4.0604,-4.0559,-4.0623,-4.0625,-4.0612,-4.0683,-4.0687,-4.075,-4.0662,-4.0664,-4.0665,0,-4.0065,-4.0114,-4.0199,-4.0255,-4.0276,-4.0317,-4.0372,-4.0415,-4.0463,-4.048,-4.0518,-4.0531,-4.0587,-4.0567,-4.0645,-4.0614,-4.0643,-4.0662,-4.0665,-4.0672,-4.0648,-4.0693,-4.077,-4.078,-4.068,-4.0678,-4.0677,0,-4.0093,-4.0179,-4.0242,-4.0267,-4.0333,-4.0362,-4.0391,-4.0438,-4.0472,-4.052,-4.0542,-4.0595,-4.0625,-4.0666,-4.0695,-4.0677,-4.0772,-4.0753,-4.0788,-4.0787,-4.0807,-4.0805,-4.0891,-4.0824,-4.0824,-4.0824,-4.0823,0,-4.0155,-4.0207,-4.0256,-4.0294,-4.0354,-4.0384,-4.0442,-4.0471,-4.0514,-4.0559,-4.0575,-4.0617,-4.0651,-4.0698,-4.0721,-4.0784,-4.0796,-4.0812,-4.0818,-4.0811,-4.0809,-4.083,-4.0827,-4.0826,-4.0826,-4.0825,-4.0825,0,-4.0195,-4.023,-4.03,-4.0358,-4.0374,-4.0416,-4.0466,-4.0505,-4.0533,-4.059,-4.0605,-4.0649,-4.0706,-4.0738,-4.0809,-4.0824,-4.0895,-4.0897,-4.0879,-4.0881,-4.0915,-4.0912,-4.1017,-4.1033,-4.0955,-4.0956,-4.0956,0,-4.0232,-4.0273,-4.0337,-4.0369,-4.0399,-4.0451,-4.0486,-4.0517,-4.0553,-4.0613,-4.0645,-4.0703,-4.0751,-4.0841,-4.0879,-4.0934,-4.0939,-4.0973,-4.0947,-4.0941,-4.0941,-4.0939,-4.0944,-4.0977,-4.0977,-4.0978,-4.0978,0,-4.0295,-4.0312,-4.0361,-4.0419,-4.046,-4.0506,-4.0552,-4.0577,-4.0617,-4.0657,-4.0716,-4.0753,-4.0828,-4.0885,-4.0944,-4.0974,-4.0984,-4.0986,-4.0998,-4.0992,-4.098,-4.0988,-4.0891,-4.0983,-4.0983,-4.0982,-4.0982,-4.0982,-4.0336,-4.0374,-4.0426,-4.0482,-4.0521,-4.0564,-4.0604,-4.0639,-4.0689,-4.0752,-4.0768,-4.0831,-4.0881,-4.0962,-4.0994,-4.1044,-4.1038,-4.1053,-4.1058,-4.1061,-4.1063,-4.0972,-4.1054,-4.1054,-4.1054,-4.1054,-4.1054,0,-4.0401,-4.0436,-4.0488,-4.0553,-4.0597,-4.0604,-4.0656,-4.0693,-4.0748,-4.0795,-4.0843,-4.0912,-4.0969,-4.1013,-4.1072,-4.1104,-4.111,-4.1118,-4.1116,-4.1124,-4.1064,-4.1049,-4.1113,-4.1113,-4.1113,-4.1113,-4.1113,-4.1113,-4.044,-4.0506,-4.0529,-4.0615,-4.0649,-4.0712,-4.0742,-4.0782,-4.082,-4.0897,-4.0946,-4.0974,-4.1021,-4.1084,-4.1137,-4.1149,-4.117,-4.1178,-4.119,-4.1134,-4.1128,-4.1121,-4.1108,-4.1182,-4.1182,-4.1246,-4.1247,-4.1247]}]]